Location: Voyageurs National Park
(48.5020°N, 92.9292°W)
Time: 11:16:22
(UTC-05:00)

PCSat - Visible Passes

Search period start: 01 October 2014 00:00
Search period end: 11 October 2014 00:00
Orbit: 786 x 796 km, 67.1° (Epoch: 30 September)

Date Brightness Start Highest point End Pass type
(mag) Time Alt. Az. Time Alt. Az. Time Alt. Az.
01 Oct 12.5 20:38:47 10° WNW 20:41:08 13° WSW 20:43:28 10° SW visible
02 Oct 12.3 20:07:17 10° WNW 20:10:48 18° WSW 20:14:17 10° SW visible
03 Oct 12.1 19:36:12 10° WNW 19:40:25 24° WSW 19:44:38 10° SSW visible
07 Oct 13.0 19:19:10 10° W 19:21:00 12° WSW 19:22:50 10° WSW visible
